Theta_e
327 327 327 327 327 327 326 327 327 327 327 327 327 327 327 327 327 327 327 327 326 325 325 325 324 322 321 319 318 318 318 317 316 316 316 316 316 316 317 317 317 318
327 327 327 327 327 327 327 326 327 327 327 327 327 327 327 327 327 327 327 327 326 326 325 325 324 323 322 321 320 319 319 319 318 317 317 316 316 317 317 318 318 318
327 327 327 327 327 327 326 326 327 327 327 326 327 327 327 327 328 327 327 327 327 326 326 325 325 324 323 322 321 320 320 320 319 319 318 318 318 317 318 318 319 319
326 326 326 326 326 326 326 327 327 327 327 327 326 326 327 327 327 328 328 327 327 327 326 326 325 324 323 323 322 321 321 321 320 320 320 319 319 319 319 319 319 319
326 326 326 326 326 326 326 327 327 327 327 327 326 327 327 327 328 328 328 328 327 327 327 327 326 325 324 323 323 322 322 322 321 321 321 320 320 320 320 320 320 320
326 326 326 326 326 326 327 327 327 327 327 326 326 327 327 327 328 328 328 328 328 327 327 327 327 326 325 324 323 323 322 322 322 322 322 321 321 321 321 321 321 321
326 326 326 326 326 326 327 327 327 327 327 327 327 327 328 328 328 328 328 328 328 328 327 327 327 326 326 325 324 323 323 323 323 323 323 322 322 322 321 322 321 321
326 326 326 326 326 326 326 326 327 327 327 327 327 327 328 328 328 328 328 328 328 328 328 327 327 327 326 325 325 324 324 324 324 324 324 323 323 323 322 322 322 322
326 326 326 326 326 326 326 326 326 326 327 327 327 328 328 328 328 328 328 328 328 328 328 328 327 327 326 326 325 325 325 325 325 325 325 324 324 324 323 323 323 323
324 325 326 326 326 326 326 326 326 326 327 327 327 328 328 328 328 328 328 328 328 328 328 328 327 327 326 326 326 326 326 326 326 325 325 325 325 325 324 324 324 324
322 323 324 325 325 326 325 325 325 325 325 326 326 327 327 327 328 328 328 328 328 328 328 327 327 327 327 327 326 326 326 326 326 326 326 326 326 326 325 325 325 324
319 321 322 323 323 324 324 324 323 323 323 323 324 325 325 326 327 327 327 328 328 328 328 327 327 327 327 327 327 327 327 327 327 327 327 327 326 326 326 326 325 325
316 317 319 320 321 322 322 322 321 321 322 322 322 323 324 325 326 326 327 327 327 327 327 327 327 327 327 327 327 327 327 327 327 327 327 327 327 326 326 326 326 325
315 315 315 317 318 319 319 320 320 320 320 321 321 321 322 323 325 326 326 326 326 326 326 326 327 327 327 327 327 327 327 327 327 327 327 327 327 327 326 326 326 326
316 315 314 314 314 315 315 317 318 319 319 319 320 320 320 321 322 324 324 325 325 325 325 325 326 326 326 326 326 326 327 327 327 327 327 327 326 326 326 326 326 325
317 316 316 315 314 313 313 313 315 317 318 318 319 319 319 319 320 321 322 322 322 322 323 324 324 324 324 325 325 325 326 326 326 326 326 326 326 326 326 325 325 324
317 317 317 316 315 313 312 312 313 315 317 318 318 318 318 319 319 319 319 319 320 320 321 322 322 322 323 324 324 325 325 325 325 325 325 325 325 325 324 323 323 322
317 317 317 317 316 315 314 313 313 314 315 316 317 317 317 317 318 318 318 318 319 319 319 319 319 320 321 322 323 324 324 324 324 324 324 324 324 323 322 322 322 321
316 316 316 316 316 315 315 314 315 315 315 316 316 317 317 317 317 317 317 317 317 317 317 317 317 318 319 321 323 323 323 324 324 324 323 323 323 322 322 321 320 320
316 315 315 314 313 313 313 313 314 314 314 315 315 315 315 315 315 315 315 315 315 315 315 315 315 316 318 319 321 321 322 322 322 321 321 321 320 320 320 320 319 319
314 314 313 313 312 312 312 312 312 311 312 312 312 312 312 312 312 312 312 313 313 313 313 313 313 313 315 315 316 316 317 318 318 318 318 318 317 317 317 317 318 319
313 313 313 312 312 313 313 313 313 312 312 311 311 311 310 310 311 311 311 311 311 311 311 311 311 311 312 312 312 312 313 314 316 316 316 315 315 314 314 313 313 315
313 313 313 313 314 314 314 314 314 314 314 313 313 312 311 311 310 310 310 310 310 311 311 311 312 311 311 312 312 312 311 312 312 313 312 312 312 312 312 311 311 311
313 313 313 314 314 314 314 314 314 314 314 314 314 313 313 312 311 311 311 311 311 311 311 312 313 312 312 312 312 311 311 311 311 311 311 312 312 312 312 311 311 311
313 313 313 313 312 312 312 313 313 313 313 313 313 313 312 312 312 312 312 311 312 312 312 312 313 312 312 312 312 312 312 312 312 311 312 312 312 312 312 312 312 311
312 313 313 312 312 312 312 312 312 312 312 312 312 312 312 312 312 312 312 312 312 312 312 312 313 313 313 313 313 313 313 313 313 313 313 313 312 312 312 312 312 312
Wind_Speed
58 58 57 57 57 58 58 58 59 59 59 57 56 54 53 50 49 49 48 46 46 45 45 45 45 45 44 44 44 44 44 45 44 44 44 44 44 44 44 44 44 44
57 57 57 58 58 58 58 58 59 59 59 58 56 55 53 52 51 50 49 48 47 46 45 45 45 44 45 45 45 45 45 45 45 44 45 44 45 45 45 44 44 44
55 55 55 57 57 57 57 58 59 59 59 58 56 55 54 54 53 51 50 49 49 47 46 46 45 44 45 45 46 46 45 45 45 44 45 45 45 46 45 45 44 44
52 52 53 54 54 54 55 57 59 59 58 57 56 55 55 55 55 53 52 51 50 49 47 46 46 45 45 45 45 46 45 45 44 45 46 45 45 46 46 46 45 44
50 49 50 52 53 53 54 57 59 58 58 57 55 55 55 55 56 55 54 52 51 50 49 48 47 45 45 45 45 45 45 45 45 45 46 45 44 46 46 46 46 45
49 49 50 52 52 52 54 56 57 56 56 56 55 55 55 55 55 55 54 53 52 51 50 49 48 46 46 45 46 46 45 45 45 46 46 45 44 46 46 46 47 46
48 49 50 51 52 52 54 55 55 55 55 55 55 56 55 55 55 54 54 53 53 52 51 50 49 48 47 46 47 46 45 45 45 46 46 45 44 46 46 46 47 46
47 48 49 50 51 51 52 52 53 53 53 54 55 55 55 55 54 53 53 53 53 52 52 51 50 49 48 48 48 47 46 46 46 46 46 45 45 46 45 46 47 46
46 47 48 49 50 50 50 50 50 51 52 53 54 54 54 54 53 52 52 52 52 52 51 51 50 50 49 48 48 47 47 47 46 46 46 46 45 44 44 45 46 46
44 44 46 47 48 49 48 48 48 49 50 51 52 52 52 52 51 51 50 51 51 51 50 50 50 49 49 48 48 47 47 46 46 46 46 45 44 43 43 44 45 45
38 41 43 44 46 46 46 46 47 48 48 48 49 49 49 49 49 49 48 49 49 49 48 48 48 48 48 48 47 47 47 46 45 46 45 44 43 42 42 43 44 44
34 37 40 42 44 44 45 45 45 46 46 45 45 45 46 46 46 46 46 46 46 45 45 45 45 45 46 46 45 45 46 45 45 45 44 43 43 42 42 42 43 44
31 33 36 39 41 42 43 43 43 43 42 41 41 42 42 43 42 42 42 42 42 41 42 42 42 43 44 43 44 44 44 45 44 44 44 43 43 43 43 43 44 44
28 31 33 36 38 40 41 41 41 40 39 38 39 39 38 38 37 38 37 37 38 38 38 39 40 41 42 42 42 42 43 43 43 43 43 43 43 43 43 43 44 44
25 27 30 32 35 37 38 39 39 38 37 37 36 35 34 33 33 33 34 35 35 36 36 37 39 40 40 40 40 40 41 41 41 42 43 43 43 43 43 43 43 44
22 24 26 29 31 33 34 35 36 36 36 35 34 33 32 31 31 32 32 33 34 34 35 36 37 38 38 38 38 38 38 39 39 40 41 41 42 42 42 43 43 43
21 22 24 25 26 28 29 30 31 32 33 33 32 31 30 30 30 31 32 32 33 33 34 34 35 35 34 35 35 35 36 37 38 39 39 40 40 41 42 42 42 42
20 21 21 20 20 20 21 23 25 27 29 29 29 29 28 29 30 30 31 31 31 31 31 30 30 30 30 32 32 33 34 35 36 37 37 39 39 40 41 41 41 41
18 19 18 16 15 15 16 17 19 22 24 25 26 26 27 28 28 28 28 28 28 28 27 26 26 26 27 29 31 32 33 34 35 36 37 39 39 40 40 40 40 40
17 17 16 16 15 14 14 14 16 18 19 21 22 23 23 23 24 24 24 24 24 24 23 23 23 23 25 27 28 30 31 33 34 35 36 37 38 38 39 39 39 40
16 16 15 15 15 15 14 14 14 15 16 17 18 19 20 20 20 21 21 21 21 21 21 21 21 22 24 24 25 27 28 30 32 33 34 35 36 37 37 38 39 40
17 16 14 13 13 13 13 13 13 13 14 15 17 18 19 20 20 20 20 20 20 20 21 20 20 21 23 23 24 25 27 30 32 33 35 36 36 36 37 38 39 41
15 14 12 12 12 13 13 13 13 13 14 15 16 17 18 18 19 19 19 19 20 20 21 20 19 20 22 22 23 24 26 28 30 32 33 34 34 34 35 36 37 39
12 12 11 12 13 13 13 13 13 13 14 14 14 15 15 15 16 17 17 18 18 18 19 19 18 18 20 20 20 21 23 25 26 28 30 31 31 31 32 33 34 35
12 12 12 12 12 12 13 13 13 13 13 13 14 14 14 14 15 16 15 16 16 16 17 19 18 18 19 20 20 20 22 24 25 27 29 30 30 30 30 30 31 31
12 13 13 12 12 12 12 12 13 13 13 14 14 14 15 15 16 17 16 16 17 18 19 20 20 20 20 22 23 23 24 26 27 29 30 30 30 30 30 30 30 30
Wind_Direction
257 257 257 257 258 259 259 259 258 258 258 259 260 261 262 262 263 263 262 262 261 260 260 259 258 258 258 258 258 258 258 258 258 258 258 258 259 260 260 261 262 262
258 258 258 257 257 258 259 258 258 257 258 260 261 262 263 262 262 262 263 263 261 261 261 260 260 259 258 258 258 258 259 259 259 259 259 259 260 260 261 262 263 263
258 258 257 257 258 259 259 259 257 257 258 260 262 262 262 262 262 262 262 262 262 262 262 261 261 260 259 259 258 259 259 260 261 261 260 261 261 261 262 263 264 264
258 257 257 258 258 259 259 258 256 256 258 260 261 262 262 261 261 261 261 261 261 262 262 261 261 260 260 260 259 259 260 261 261 261 260 261 261 262 262 263 264 264
258 257 258 258 258 259 258 256 255 257 258 260 262 262 261 261 260 260 260 260 260 261 261 261 261 261 261 261 260 260 260 260 260 259 259 261 261 261 262 262 263 264
258 257 258 259 259 258 257 256 257 258 259 261 262 261 260 260 260 261 261 261 261 261 261 261 261 261 260 260 260 260 260 260 260 259 259 261 262 262 262 262 262 263
257 257 258 259 259 257 257 257 258 259 260 261 260 260 259 259 260 261 261 262 262 262 262 262 262 262 261 260 259 260 261 261 260 260 259 261 262 262 262 262 262 263
258 258 258 259 258 257 257 258 259 259 260 259 259 259 260 259 261 261 261 261 261 262 263 263 263 263 262 261 260 261 261 261 261 260 260 261 261 261 262 262 262 263
260 258 258 257 257 257 258 259 260 260 260 259 259 260 260 260 261 261 261 261 261 262 263 263 263 263 263 262 262 262 262 262 262 262 261 262 262 262 263 263 263 264
260 258 257 257 257 257 258 259 260 260 260 259 260 260 260 260 261 261 261 261 261 262 263 263 263 263 263 263 263 263 263 263 263 263 263 263 264 264 265 264 264 265
259 257 256 256 256 257 258 259 260 261 261 261 261 261 261 262 262 261 261 261 262 262 263 263 264 264 264 264 264 265 265 265 265 265 265 265 266 266 266 266 265 266
257 255 254 254 255 256 257 259 260 260 260 261 261 262 262 262 262 262 262 262 263 264 264 264 264 264 264 264 265 265 265 265 265 265 266 266 266 266 266 267 266 266
255 254 254 255 255 257 258 258 259 259 259 259 260 260 261 262 262 262 263 263 263 263 263 263 263 263 263 263 264 264 264 265 265 265 266 266 266 267 267 267 267 267
258 256 255 255 256 256 257 257 257 256 256 256 257 258 259 260 262 262 263 263 262 262 262 262 262 262 262 262 262 263 263 264 264 265 266 266 267 267 267 267 268 268
263 259 257 255 255 255 256 256 255 254 254 253 254 255 256 257 258 259 260 259 259 260 260 260 261 260 260 260 260 261 262 263 264 265 266 267 267 267 268 268 268 269
266 262 258 255 253 254 254 255 255 253 252 250 250 250 250 251 252 252 253 254 255 256 257 258 259 259 259 259 259 260 261 262 264 265 265 267 267 268 268 268 269 269
272 268 263 258 254 253 253 253 252 252 251 249 248 247 246 246 246 247 248 249 251 253 253 254 254 254 255 256 257 258 259 260 262 263 264 265 266 267 268 268 269 269
278 273 268 263 258 254 252 251 250 249 249 248 246 245 244 244 245 245 246 248 249 249 249 249 250 250 252 253 255 256 257 259 260 261 263 264 265 265 266 267 268 268
277 272 269 265 261 257 252 248 248 247 247 248 247 247 247 247 246 246 246 246 246 246 247 247 248 249 250 252 254 256 256 258 259 260 261 262 263 264 266 267 268 268
266 263 262 260 258 255 250 244 243 244 246 248 248 248 247 246 246 245 245 245 245 246 248 249 250 251 251 252 254 255 256 256 257 258 259 260 261 262 263 265 266 268
253 251 254 255 254 253 250 245 241 239 240 243 243 243 243 243 243 243 242 243 245 246 248 248 249 250 252 253 254 255 256 257 257 258 258 259 261 262 262 263 264 265
244 241 241 243 244 245 245 244 243 240 237 237 237 238 238 239 239 240 240 242 243 245 247 247 248 251 253 254 254 254 255 255 255 255 255 256 258 260 260 260 259 259
238 231 226 226 229 233 236 237 238 239 238 239 240 241 241 241 242 242 242 242 243 244 246 249 251 253 254 254 253 254 255 256 256 257 258 259 260 261 261 261 260 259
241 236 232 231 232 236 239 239 240 241 243 246 249 251 251 251 250 249 247 247 247 247 250 254 257 258 259 260 260 261 262 263 265 266 267 268 269 269 269 268 268 266
250 248 246 246 248 252 255 257 259 259 259 260 261 262 261 260 259 259 259 259 260 259 259 260 262 263 264 266 265 265 267 269 270 272 274 275 277 277 276 275 273 273
247 246 247 251 257 264 268 272 273 274 275 275 275 274 273 273 273 273 273 272 271 270 270 270 270 269 269 270 270 269 270 272 273 275 277 279 280 279 278 278 277 279